User: anonymous   Login
Location: Unspecified
(0.0000°N, 0.0000°E)
Time: 20:50:17
(UTC+00:00)
Language:

Explorer 7 - Orbit

View from above orbital plane
View from above orbital plane
View from above satellite
View from above satellite

Ground track
Ground track

The orbit data is extracted from the following two-line orbital elements,

1    22U 59009A   20196.43596359 -.00000185  00000-0  96492-5 0  9999
2    22  50.2852 335.4621 0139477   1.8564 358.2873 14.95160251229369
Epoch (UTC): 14 July 2020 10:27:47
Eccentricity: 0.0139477
inclination: 50.2852°
perigee height: 485 km
apogee height: 679 km
right ascension of ascending node: 335.4621°
argument of perigee: 1.8564°
revolutions per day: 14.95160251
mean anomaly at epoch: 358.2873°
orbit number at epoch: 22936

The dashed part of the orbit path shows where the satellite is in the earth's shadow,  

DLR